This is the latest recevied weather packets stored in our database for station/object W4CPD. If no packets are shown the sender has not sent any weather packets the latest 10 day(s).
| Time | Temp. | Humidity | Pressure | Rain* | Wind** | Luminosity | Snow |
|---|---|---|---|---|---|---|---|
| 1777449635 | 22.22° C | 96% | 1016.4 hPa | 0 mm | - | - | - |
| 1777449015 | 22.22° C | 96% | 1016.2 hPa | 0 mm | - | - | - |
| 1777448114 | 22.22° C | 96% | 1016.1 hPa | 0 mm | - | - | - |
| 1777446616 | 21.67° C | 96% | 1016 hPa | 0 mm | - | - | - |
| 1777445415 | 21.67° C | 95% | 1016 hPa | 0 mm | - | - | - |
| 1777444241 | 22.22° C | 95% | 1016.2 hPa | 0 mm | - | - | - |
| 1777443617 | 22.22° C | 95% | 1016.4 hPa | 0 mm | - | - | - |
| 1777443016 | 22.22° C | 94% | 1016.6 hPa | 0 mm | - | - | - |
| 1777442119 | 22.22° C | 94% | 1016.7 hPa | 0 mm | - | - | - |
| 1777437035 | 22.78° C | 93% | 1017.5 hPa | 0 mm | - | - | - |
| 1777436132 | 22.78° C | 93% | 1017.5 hPa | 0 mm | - | - | - |
| 1777433713 | 22.78° C | 93% | 1017.2 hPa | 0 mm | - | - | - |
| 1777433430 | 22.78° C | 93% | 1017.3 hPa | 0 mm | - | - | - |
| 1777430729 | 22.78° C | 93% | 1018.2 hPa | 0 mm | - | - | - |
| 1777423817 | 23.33° C | 89% | 1018.6 hPa | 0 mm | - | - | - |
| 1777422317 | 23.33° C | 88% | 1018.6 hPa | 0 mm | - | - | - |
| 1777420831 | 23.89° C | 87% | 1018.8 hPa | 0 mm | - | - | - |
| 1777420518 | 23.89° C | 87% | 1018.9 hPa | 0 mm | - | - | - |
| 1777419034 | 24.44° C | 86% | 1018.6 hPa | 0 mm | - | - | - |
| 1777413013 | 26.11° C | 80% | 1018.4 hPa | 0 mm | - | - | - |
| 1777412416 | 26.67° C | 78% | 1018.6 hPa | 0 mm | - | - | - |
| 1777411513 | 26.67° C | 77% | 1018.7 hPa | 0 mm | - | - | - |
| 1777410935 | 27.22° C | 77% | 1018.6 hPa | 0 mm | - | - | - |
| 1777410035 | 27.78° C | 75% | 1018.7 hPa | 0 mm | - | - | - |
| 1777405214 | 28.89° C | 69% | 1019.9 hPa | 0 mm | - | - | - |
* Rain latest hour (hover to see other rain measurements)
** Current wind speed in m/s (hover to see current wind gust speed)